📊 Raw Sensor Data
Showing records 52301 to 52325 of 85,276 total
| ID | Distance (ft) | Battery V | Battery A | Int Temp (°F) | Int Humid (%) | Ext Temp (°F) | Solar V | RSSI | SNR | Time Stamp |
|---|---|---|---|---|---|---|---|---|---|---|
| 32988 | 14.0 | 3.78 | -5 | 38 | 38 | 40 | 0.00 | -77 | 8 | 02/21/2025 04:15 AM |
| 32987 | 14.0 | 3.78 | -5 | 39 | 37 | 40 | 0.00 | -77 | 9 | 02/21/2025 04:00 AM |
| 32986 | 14.0 | 3.78 | -5 | 38 | 38 | 41 | 0.00 | -78 | 8 | 02/21/2025 03:45 AM |
| 32985 | 14.0 | 3.83 | -5 | 38 | 37 | 40 | 0.00 | -77 | 8 | 02/21/2025 03:30 AM |
| 32984 | 14.0 | 3.83 | -5 | 39 | 38 | 41 | 0.00 | -77 | 8 | 02/21/2025 03:15 AM |
| 32983 | 13.9 | 3.78 | -5 | 38 | 38 | 40 | 0.00 | -77 | 8 | 02/21/2025 03:00 AM |
| 32982 | 14.0 | 3.78 | -5 | 38 | 38 | 39 | 0.10 | -77 | 8 | 02/21/2025 02:45 AM |
| 32981 | 14.0 | 3.78 | -5 | 39 | 38 | 40 | 0.00 | -78 | 8 | 02/21/2025 02:30 AM |
| 32980 | 13.9 | 3.84 | -5 | 40 | 38 | 42 | 0.00 | -77 | 8 | 02/21/2025 02:15 AM |
| 32979 | 13.9 | 3.79 | -5 | 40 | 38 | 42 | 0.00 | -78 | 7 | 02/21/2025 02:00 AM |
| 32978 | 14.0 | 3.79 | -5 | 41 | 38 | 43 | 0.00 | -77 | 8 | 02/21/2025 01:45 AM |
| 32977 | 14.0 | 3.79 | -5 | 43 | 37 | 44 | 0.00 | -77 | 8 | 02/21/2025 01:30 AM |
| 32976 | 13.9 | 3.79 | -5 | 44 | 36 | 47 | 0.00 | -78 | 8 | 02/21/2025 01:15 AM |
| 32975 | 13.9 | 3.79 | -5 | 45 | 36 | 48 | 0.00 | -77 | 7 | 02/21/2025 01:00 AM |
| 32974 | 13.9 | 3.79 | -5 | 42 | 37 | 49 | 0.00 | -77 | 8 | 02/21/2025 12:45 AM |
| 32973 | 14.0 | 3.79 | -5 | 41 | 37 | 47 | 0.10 | -76 | 8 | 02/21/2025 12:30 AM |
| 32972 | 13.9 | 3.84 | -5 | 40 | 38 | 43 | 0.00 | -77 | 8 | 02/21/2025 12:15 AM |
| 32971 | 13.9 | 3.84 | -5 | 41 | 37 | 42 | 0.00 | -78 | 8 | 02/21/2025 12:00 AM |
| 32970 | 13.9 | 3.79 | -5 | 42 | 37 | 43 | 0.00 | -78 | 8 | 02/20/2025 11:45 PM |
| 32969 | 13.9 | 3.79 | -5 | 41 | 38 | 44 | 0.00 | -78 | 8 | 02/20/2025 11:30 PM |
| 32968 | 13.9 | 3.84 | -5 | 41 | 38 | 42 | 0.00 | -77 | 8 | 02/20/2025 11:15 PM |
| 32967 | 13.9 | 3.79 | -5 | 43 | 38 | 44 | 0.10 | -78 | 7 | 02/20/2025 11:00 PM |
| 32966 | 13.9 | 3.79 | -5 | 43 | 38 | 48 | 0.00 | -77 | 8 | 02/20/2025 10:45 PM |
| 32965 | 13.9 | 3.79 | -5 | 43 | 38 | 45 | 0.00 | -77 | 8 | 02/20/2025 10:30 PM |
| 32964 | 13.9 | 3.85 | -5 | 44 | 38 | 45 | 0.00 | -78 | 8 | 02/20/2025 10:15 PM |